Regional Weather Roundup
Issued by NWS

Home | Current Version | Previous Version | Text Only | Print | Product List | Glossary On
Versions: 1 2 3 4 5 6 7 8 9 10 11 12 13 14 15 16 17 18 19 20 21 22 23 24 25 26 27
000
ASUS46 KPQR 240910
RWROR

OREGON REGIONAL WEATHER ROUNDUP
NATIONAL WEATHER SERVICE PORTLAND OR
200 AM PDT FRI OCT 24 2014

NOTE: "FAIR" INDICATES FEW OR NO CLOUDS BELOW 12,000 FEET WITH
NO SIGNIFICANT WEATHER AND/OR OBSTRUCTIONS TO VISIBILITY.

ORZ001>013-241000-
NORTHWEST OREGON


CITY           SKY/WX    TMP DP  RH WIND       PRES   REMARKS
ASTORIA        CLOUDY    50  48  93 SE3       29.99R
NEWPORT        CLOUDY    54  52  94 S3        30.03S
PORTLAND       CLOUDY    52  51  97 E3        30.04R
VANCOUVER WA   CLOUDY    53  50  89 NE5       30.03S
SCAPPOOSE      LGT RAIN  51  49  92 E6        30.02R
HILLSBORO      CLOUDY    50  50 100 CALM      30.03S
AURORA         CLOUDY    49  49 100 CALM      30.04R
MCMINNVILLE    CLOUDY    51  50  96 N5        30.03R
SALEM          CLOUDY    51  48  89 SE5       30.02R
CORVALLIS      CLOUDY    52  50  93 SE3       30.03S
EUGENE         CLOUDY    51  48  89 S5        30.02S
$$

ORZ021-028-241000-
SOUTHWEST OREGON


CITY           SKY/WX    TMP DP  RH WIND       PRES   REMARKS
NORTH BEND     CLOUDY    54  54 100 SE5       30.00F
BROOKINGS      LGT RAIN  55  55 100 E3        30.01R
ROSEBURG       CLOUDY    54  51  90 CALM      30.02S
SEXTON SUMMIT  LGT RAIN  45  45 100 SE8       30.02R VSB 1/4
MEDFORD        LGT RAIN  53  51  93 CALM      30.02S
$$

ORZ009-041-241000-
COLUMBIA GORGE


CITY           SKY/WX    TMP DP  RH WIND       PRES   REMARKS
TROUTDALE      CLOUDY    52  49  89 CALM      30.03R
THE DALLES     CLOUDY    46  43  89 E5        30.04S
$$

ORZ029>031-042>050-061>064-241000-
EASTERN OREGON


CITY           SKY/WX    TMP DP  RH WIND       PRES   REMARKS
REDMOND        CLOUDY    46  40  79 NE5       30.03R
BEND           CLOUDY    46  41  81 SW5       30.05R
KLAMATH FALLS  LGT RAIN  43  42  97 CALM      30.07F
LAKEVIEW       CLOUDY    43  39  87 CALM      30.09F
HERMISTON      CLOUDY    48  44  86 SE5       30.04R
PENDLETON      CLOUDY    47  43  86 CALM      30.03S
JOHN DAY       CLOUDY    50  41  72 S8        30.06S
MEACHAM        CLOUDY    42  41  96 CALM      30.06R
LA GRANDE      CLOUDY    46  37  71 NW6       30.04S
BAKER CITY     CLOUDY    45  41  86 CALM      30.06S
BURNS          LGT RAIN  44  42  93 N3        30.09S
ROME             N/A     50  43  77 NE8       30.07F
ONTARIO        CLOUDY    52  51  97 CALM      30.09S
$$



USA.gov is the U.S. government's official web portal to all federal, state and local government web resources and services.